Home > Weather > Perm > Past weeks

Flag for Russia Weather for the Past 2 Weeks in Perm, Russia

Now
25 °F

Clear.


Feels Like: 25 °F
Forecast: 8 / 20 °F
Wind: No wind

Location: Perm'/Bolshoe Savino

Current Time: Feb 13, 2016 at 3:19:52 PM

Latest Report: Feb 13, 2016 at 3:00 PM


Visibility: 3 mi

Pressure: 30.54 "Hg

Humidity: 63%

Dew point: 14 °F

Location of PermLocation

Historic Weather in Perm — Graph

°F

Perm Temperature Yesterday

Maximum temperature yesterday: 32 °F (at 3:30 PM)
Minimum temperature yesterday: 16 °F (at 9:00 AM)
Average temperature yesterday: 21 °F

High & Low Weather Summary for the Past Weeks

 TemperatureHumidityPressure
High36 °F (Feb 2, 1:00 AM)100% (Feb 2, 6:30 PM)30.60 "Hg (Feb 2, 6:30 PM)
Low-2 °F (Jan 29, 8:30 PM)51% (Feb 12, 3:30 PM)29.45 "Hg (Feb 4, 6:00 AM)
Average24 °F86%29.98 "Hg
* Reported Jan 29 2:00 PM — Feb 13 2:00 PM, Perm, Weather by CustomWeather, © 2016

Note: Actual official high and low records may vary slightly from our data, if they occured in-between our weather recording intervals... More about our weather records

Advertising

Perm Weather History for the Previous 24 Hours

 ConditionsComfort  
Time TempWeatherWind HumidityBarometerVisibility
2:00 PM
Sat, Feb 13
21 °FClear.1 mph74%30.54 "Hg5 mi
1:30 PM19 °FClear.1 mph79%30.57 "Hg5 mi
1:00 PM19 °FClear.1 mph86%30.57 "Hg4 mi
12:30 PM18 °FClear.1 mph100%30.57 "Hg4 mi
12:00 PM12 °FClear.No wind92%30.57 "Hg4 mi
11:30 AM9 °FClear.No wind92%30.57 "Hg4 mi
11:00 AM9 °FScattered clouds.3 mph92%30.57 "Hg4 mi
10:30 AM7 °FIce fog.No wind92%30.57 "Hg2 mi
10:00 AM5 °FClear.1 mph92%30.57 "Hg4 mi
9:30 AM5 °FPassing clouds.1 mph85%30.57 "Hg4 mi
9:00 AM3 °FPassing clouds.1 mph92%30.57 "Hg2 mi
8:30 AM5 °FClear.1 mph85%30.57 "Hg5 mi
8:00 AM5 °FClear.No wind92%30.57 "HgN/A
7:30 AM7 °FClear.1 mph92%30.57 "Hg10 mi
7:00 AM7 °FClear.3 mph92%30.57 "Hg10 mi
6:30 AM7 °FClear.3 mph85%30.57 "Hg6 mi
6:00 AM7 °FClear.3 mph92%30.57 "Hg6 mi
5:30 AM9 °FClear.1 mph92%30.57 "Hg10 mi
5:00 AM9 °FClear.1 mph92%30.57 "Hg6 mi
4:30 AM10 °FClear.1 mph92%30.57 "Hg4 mi
4:00 AM9 °FClear.1 mph100%30.60 "Hg6 mi
3:30 AM10 °FClear.No wind85%30.60 "Hg6 mi
3:00 AM12 °FClear.1 mph92%30.60 "Hg6 mi
2:30 AM12 °FClear.6 mph92%30.57 "Hg6 mi
2:00 AM12 °FClear.1 mph92%30.57 "Hg10 mi
1:00 AM12 °FClear.3 mph85%30.60 "Hg10 mi
12:00 AM14 °FClear.1 mph85%30.60 "Hg6 mi
11:00 PM
Fri, Feb 12
18 °FClear.6 mph86%30.60 "Hg6 mi
10:00 PM18 °FClear.1 mph86%30.60 "Hg6 mi
9:00 PM18 °FClear.No wind86%30.60 "Hg6 mi
8:30 PM16 °FClear.1 mph86%30.60 "Hg6 mi
8:00 PM19 °FClear.1 mph79%30.60 "Hg6 mi
7:30 PM23 °FClear.3 mph68%30.60 "Hg6 mi
7:00 PM23 °FClear.3 mph68%30.60 "Hg6 mi
6:30 PM23 °FClear.1 mph68%30.60 "Hg6 mi
6:00 PM25 °FClear.3 mph63%30.60 "Hg6 mi
5:30 PM28 °FPassing clouds.3 mph55%30.60 "HgN/A
5:00 PM30 °FSunny.3 mph55%30.60 "Hg10 mi
4:30 PM30 °FSunny.3 mph55%30.60 "Hg10 mi
4:00 PM28 °FSunny.3 mph59%30.60 "Hg10 mi
3:30 PM32 °FSunny.1 mph51%30.60 "Hg10 mi
3:00 PM30 °FSunny.3 mph59%30.60 "Hg10 mi
Weather by CustomWeather, © 2016

See weather overviewHow to use our weather pages